SCP
0 0 0 0 0 0 0 0 0 0 0 0 0 0 0 0 0 0 1 1 1 1 1 1 1 1 2 2 2 2 2 2 2 2 2 1 1 1 1 1 1 1 1 1
0 0 0 0 0 0 0 0 0 0 0 0 0 0 0 0 0 0 1 1 1 1 1 1 1 1 2 2 2 2 2 2 2 2 2 1 1 1 1 1 1 1 1 1
0 0 0 0 0 0 0 0 0 0 0 0 0 0 0 0 0 0 1 1 1 1 1 1 1 1 1 2 2 2 2 2 2 2 2 1 1 1 1 1 1 1 1 1
0 0 0 0 0 0 0 0 0 0 0 0 0 0 0 0 0 0 0 1 1 1 1 1 1 1 1 1 1 2 2 2 2 2 2 2 1 1 1 1 1 1 1 1
0 0 0 0 0 0 0 0 0 0 0 0 0 0 0 0 0 0 0 1 1 1 1 1 1 1 1 1 1 2 2 2 2 2 2 2 2 1 1 1 1 1 1 1
0 0 0 0 0 0 0 0 0 0 0 0 0 0 0 0 0 0 1 1 1 1 1 1 1 1 1 1 1 1 2 2 2 2 2 2 2 2 1 1 1 1 1 1
0 0 0 0 0 0 0 0 0 0 0 0 0 0 0 0 0 1 1 1 1 1 1 1 1 1 1 1 1 1 1 2 2 2 1 1 1 1 1 1 1 1 1 1
0 0 0 0 0 0 0 0 0 0 0 0 0 0 0 0 1 1 1 1 1 1 1 1 1 1 1 1 1 1 1 1 2 2 1 1 1 1 1 1 1 1 1 1
0 0 0 0 0 0 0 0 0 0 0 0 0 0 0 1 1 1 1 1 1 1 1 1 1 1 1 1 1 1 1 1 1 1 1 1 1 1 1 1 1 1 1 1
0 0 0 0 0 0 0 0 0 0 0 0 0 0 0 1 1 1 1 1 1 1 1 1 1 1 1 1 1 1 1 1 1 1 1 1 1 1 1 1 1 1 1 1
0 0 0 0 0 0 0 0 0 0 0 0 0 0 0 1 1 1 1 1 1 1 1 1 1 1 1 1 1 1 1 1 1 1 1 1 1 1 1 1 1 1 1 1
0 0 0 0 0 0 0 0 0 0 0 0 0 0 0 1 1 1 1 1 1 1 1 1 1 1 1 1 1 1 1 1 1 1 1 1 1 1 1 1 1 1 1 1
0 0 0 0 0 0 0 0 0 0 0 0 0 0 0 1 1 1 1 1 0 0 0 0 0 1 1 1 1 1 1 1 1 1 1 1 1 1 1 1 1 1 1 1
0 0 0 0 0 0 0 0 0 0 0 0 0 0 0 1 1 1 1 0 0 0 0 0 0 0 1 1 1 1 1 1 1 1 1 1 1 1 1 1 1 1 1 1
0 0 0 0 0 0 0 0 0 0 0 0 0 0 0 1 1 0 0 0 0 0 0 0 0 0 1 1 1 1 1 1 1 1 1 1 1 1 1 1 1 1 1 1
0 0 0 0 0 0 0 0 0 0 0 0 0 0 0 0 0 0 0 0 0 0 0 0 0 1 1 1 1 1 1 1 1 1 1 1 1 1 1 1 1 1 1 1
0 0 0 0 0 0 0 0 0 0 0 0 0 0 0 0 0 0 0 0 0 0 0 0 0 1 1 1 1 1 1 1 1 1 1 1 1 1 1 1 1 1 1 1
0 0 0 0 0 0 0 0 0 0 0 0 0 0 0 0 0 0 0 0 0 0 0 1 1 1 1 1 1 1 0 1 1 1 1 1 1 1 1 1 1 1 1 1
0 0 0 0 0 0 0 0 0 0 0 0 0 0 0 0 0 0 0 0 0 0 1 1 0 0 0 0 1 1 0 0 0 0 0 1 1 1 1 1 1 1 1 1
0 0 0 0 0 0 0 0 0 0 0 0 0 0 0 0 0 0 0 0 0 0 1 0 0 0 0 0 0 0 0 0 0 0 0 1 1 1 1 1 1 1 1 1
0 0 0 0 0 0 0 0 0 0 0 0 0 0 0 0 0 0 0 0 0 0 0 0 0 0 0 0 0 0 0 0 0 0 1 1 1 1 1 1 1 1 1 1
0 0 0 0 0 0 0 0 0 0 0 0 0 0 0 0 0 0 0 0 0 0 0 0 0 0 0 0 0 0 0 0 0 0 1 1 1 1 1 1 1 1 1 1
0 0 0 0 0 0 0 0 0 0 0 0 0 0 0 0 0 0 0 0 0 0 0 0 0 0 0 0 0 0 0 0 0 0 1 1 1 1 1 1 1 1 1 1
0 0 0 0 0 0 0 0 0 0 0 0 0 0 0 0 0 0 0 0 0 0 0 0 0 0 0 0 0 0 0 0 0 0 1 1 1 1 1 1 1 1 1 1
0 0 0 0 0 0 0 0 0 0 0 0 0 0 0 0 0 0 0 0 0 0 0 0 0 0 0 0 0 0 0 0 0 0 1 1 1 1 1 1 1 1 1 0
0 0 0 0 0 0 0 0 0 0 0 0 0 0 0 0 0 0 0 0 0 0 0 0 0 0 0 0 0 0 0 0 0 0 1 1 1 1 1 0 0 0 0 0
Wind_Speed
15 14 15 15 17 17 15 14 13 10 10 9 9 10 9 7 7 8 9 10 9 9 9 7 8 9 9 8 7 7 6 6 5 4 4 3 3 2 2 2 3 3 2 3
15 18 17 16 16 16 17 16 15 11 10 9 10 11 8 7 8 7 8 9 10 10 10 8 7 8 9 8 8 7 6 5 4 3 2 2 2 2 2 2 3 3 3 3
19 14 15 17 16 16 17 16 14 13 11 10 11 11 7 7 7 6 6 7 8 10 10 9 7 6 7 8 7 6 6 5 4 3 2 2 2 2 2 3 3 3 3 3
18 16 15 16 17 16 15 14 14 15 12 11 11 9 9 9 8 6 6 7 7 9 9 9 9 7 7 7 7 5 5 5 4 3 3 4 3 3 3 3 3 4 3 3
16 16 16 16 15 14 14 13 14 15 14 14 13 11 7 7 8 8 8 7 7 9 9 9 9 8 7 7 7 6 5 4 4 3 2 2 2 2 1 2 2 3 3 4
18 16 14 14 13 13 12 13 14 13 12 15 14 12 9 8 10 9 10 9 7 8 9 9 8 9 7 6 6 7 6 4 4 4 3 2 2 2 2 2 2 3 3 3
18 17 14 12 14 12 12 11 9 10 10 12 12 12 5 5 8 9 10 9 7 7 8 8 8 9 8 8 6 6 6 5 4 4 3 3 2 2 2 2 2 2 2 2
14 14 13 12 13 12 13 14 11 10 10 10 10 9 4 4 5 7 8 9 7 6 7 7 8 8 7 7 6 6 6 5 5 4 4 3 3 2 2 2 1 2 1 2
11 10 10 11 12 15 14 13 13 13 14 12 8 7 7 4 5 7 10 10 7 6 5 6 7 7 7 7 6 5 6 5 4 4 3 4 4 3 2 2 2 2 1 2
12 13 11 10 10 14 15 12 9 11 11 12 11 9 6 10 9 8 8 8 8 7 6 5 5 5 5 5 5 4 4 4 3 3 3 3 3 3 3 3 3 2 2 1
10 11 12 10 11 11 12 13 11 10 10 11 10 3 3 6 7 8 7 6 7 6 6 5 5 5 4 4 4 4 4 4 3 3 3 2 3 4 3 3 3 3 2 2
7 8 10 12 11 9 11 12 11 9 10 11 9 2 4 5 6 8 8 6 7 7 6 5 5 5 4 5 4 3 3 3 3 2 2 2 2 3 3 3 2 3 2 3
6 6 9 11 9 8 10 10 10 9 9 10 9 2 4 5 6 7 8 7 6 6 6 6 5 4 4 4 4 3 1 2 2 1 1 2 2 2 3 3 2 3 3 3
6 7 10 11 9 8 10 12 10 8 8 10 8 3 2 4 4 6 7 7 6 5 5 5 5 4 4 4 3 2 2 1 1 1 1 2 2 2 3 3 3 3 3 3
5 9 11 13 13 14 12 11 11 9 8 9 6 3 2 3 5 5 5 7 6 5 3 4 4 3 3 3 2 1 1 1 0 1 2 2 2 2 3 3 3 3 3 4
4 7 10 12 13 13 11 10 10 9 8 8 3 1 2 3 4 5 4 5 5 5 4 4 3 2 2 2 1 1 1 1 1 1 1 2 2 3 3 3 3 3 3 3
5 6 9 11 12 12 9 7 7 5 5 6 5 2 2 1 1 2 4 4 4 3 4 3 2 2 1 1 1 1 2 1 1 1 1 1 2 2 2 2 2 3 3 3
6 7 6 9 9 10 3 2 1 1 3 3 2 1 2 2 2 2 3 2 3 3 3 2 1 1 1 1 1 1 2 2 2 2 2 2 3 3 2 2 2 3 3 4
6 6 6 6 7 6 4 4 4 2 2 5 6 4 2 3 2 3 4 3 3 3 3 2 1 1 1 1 2 2 2 2 2 2 2 3 3 3 3 3 2 2 3 3
7 6 7 7 8 6 3 4 7 2 2 5 5 4 2 1 0 2 3 3 3 3 2 1 1 1 1 2 2 3 3 3 3 3 3 2 2 3 4 3 2 2 3 4
5 7 8 8 7 2 4 5 6 3 2 5 4 3 4 4 3 2 2 2 2 2 2 1 0 1 1 1 2 3 3 3 3 3 3 2 2 3 3 2 2 3 3 3
5 5 5 6 6 2 6 4 3 3 4 5 4 3 4 4 3 2 2 2 2 1 0 0 1 1 1 1 2 3 3 3 3 3 2 2 2 3 3 2 2 3 3 4
3 4 3 2 1 2 5 5 4 4 4 5 4 3 2 2 2 3 2 1 1 1 1 1 1 1 1 1 2 3 3 3 3 3 2 2 3 3 2 3 3 3 3 3
2 4 2 1 1 3 4 5 6 5 5 6 5 5 4 3 3 3 3 2 1 1 2 2 2 2 2 2 3 3 3 3 3 3 3 3 3 3 2 2 3 2 2 2
5 4 3 2 3 4 4 5 6 6 6 5 5 6 5 5 5 4 3 2 2 2 2 2 2 3 3 3 3 3 3 3 3 3 3 3 3 3 2 2 2 3 2 2
4 4 4 3 3 4 5 7 7 6 6 6 7 7 5 5 5 4 3 2 3 3 3 3 3 3 3 3 3 3 3 3 3 3 3 3 3 3 2 3 2 2 2 2
Wind_Direction
223 228 233 235 237 248 259 262 263 259 255 249 245 245 225 210 216 201 185 172 170 163 156 146 144 144 137 134 139 146 149 149 152 158 171 170 178 179 165 167 159 161 184 197
228 231 238 245 245 248 254 258 264 260 250 244 240 244 231 213 215 205 178 167 168 159 149 138 134 135 135 137 144 145 145 149 161 157 168 167 171 181 178 166 159 174 195 205
231 235 233 240 243 247 251 255 260 263 265 249 241 237 227 229 215 194 176 160 153 153 150 142 142 141 142 137 141 149 145 148 152 143 164 157 149 176 173 167 170 190 197 196
241 240 238 238 242 245 251 254 264 264 264 261 245 242 215 209 204 198 181 162 157 150 150 150 147 147 143 136 137 128 138 143 147 156 182 178 176 183 182 173 177 184 189 190
249 243 243 242 244 247 257 267 264 259 261 263 253 245 224 202 198 193 179 164 159 155 154 157 154 154 152 144 145 139 132 140 145 155 176 179 181 168 157 154 161 179 188 198
258 256 252 254 252 248 256 265 265 256 253 251 249 248 226 205 193 179 169 162 159 154 155 150 150 151 147 143 148 144 144 146 152 157 167 181 170 146 147 155 168 191 185 188
247 249 246 244 250 242 241 250 251 242 238 247 249 249 221 201 181 170 162 154 154 151 148 149 150 147 148 149 154 150 152 152 154 168 173 178 174 166 165 178 180 187 181 168
248 246 237 233 240 243 230 235 244 252 250 256 246 241 202 176 153 150 143 139 147 149 143 139 139 140 152 151 153 153 152 154 162 179 191 182 182 191 196 198 193 200 201 174
264 257 248 239 236 242 239 238 247 259 267 265 244 210 193 153 140 140 136 134 133 130 130 133 133 135 143 142 146 148 151 157 167 177 188 185 195 201 197 199 209 213 216 188
281 278 257 242 236 237 243 245 252 247 255 262 257 242 188 167 154 130 125 133 128 124 119 112 110 109 122 131 134 131 139 153 161 172 195 199 196 202 204 206 209 211 219 203
278 275 270 256 237 239 236 237 246 257 256 262 266 273 57 139 147 134 128 121 117 118 104 94 91 99 103 107 127 135 138 147 165 180 191 197 203 207 213 213 210 214 216 200
284 277 270 263 257 248 244 244 243 251 254 261 268 258 77 116 138 128 126 125 117 111 107 103 91 90 92 88 82 79 119 147 157 168 184 188 194 199 209 211 213 210 209 203
313 279 265 254 242 237 248 247 250 256 262 259 258 230 94 96 106 113 114 106 102 104 102 99 89 78 75 73 71 61 99 121 123 141 185 181 185 200 207 205 207 208 208 210
285 265 264 265 277 274 258 259 258 251 253 263 258 198 132 118 116 112 112 111 105 97 94 92 90 79 70 63 63 60 44 82 126 158 201 214 207 211 215 212 210 215 214 216
277 264 268 277 280 278 272 267 256 247 249 255 261 204 156 152 135 126 127 123 119 114 104 92 82 72 68 56 41 32 38 33 45 195 210 220 232 224 216 213 207 220 225 226
288 279 281 276 278 278 280 281 278 259 252 252 253 239 120 123 126 136 141 140 137 142 136 111 97 83 65 49 10 8 10 16 319 243 229 220 224 225 213 211 210 214 227 230
269 273 275 273 280 278 265 264 265 263 270 267 263 269 104 73 58 129 148 149 142 142 119 109 100 84 55 7 1 353 330 310 282 265 251 245 242 234 224 219 212 213 218 225
265 271 265 269 273 260 252 319 310 277 325 331 319 52 104 73 63 77 97 112 123 117 103 96 84 62 42 348 345 320 300 278 267 260 254 248 252 250 243 230 218 227 227 228
235 252 266 268 261 249 275 316 304 260 311 1 2 3 78 98 108 102 93 92 95 91 79 65 37 347 340 328 327 299 291 281 273 274 272 257 247 254 249 241 235 236 234 231
219 228 247 260 265 267 299 328 318 287 280 8 11 355 6 67 103 82 79 88 81 80 82 62 14 355 352 337 316 303 291 294 291 290 288 279 271 265 258 248 248 251 246 239
243 238 247 259 261 271 345 329 307 270 346 0 2 13 8 26 33 31 44 65 72 75 76 64 352 305 312 307 299 297 300 301 302 296 288 283 275 267 259 246 248 248 250 248
279 271 262 266 264 276 6 4 11 27 19 360 6 27 24 28 26 19 22 25 50 51 63 350 327 321 302 294 296 296 303 306 304 300 287 281 274 268 261 247 245 248 245 244
320 322 319 322 296 25 27 28 14 4 4 0 3 10 15 358 341 339 336 334 347 323 301 291 293 284 280 280 280 292 300 298 302 303 289 267 264 266 257 238 237 236 237 242
308 336 338 315 321 336 5 7 353 352 355 346 344 343 338 323 316 322 318 312 299 288 286 291 289 281 274 276 286 288 291 297 299 294 281 262 262 261 254 257 253 235 234 243
338 333 318 292 318 326 358 358 334 331 340 341 335 331 329 322 307 298 288 275 281 287 283 281 279 276 276 284 287 287 294 295 289 280 273 266 258 258 254 252 274 255 233 230
343 342 324 321 331 321 330 334 336 337 334 332 327 320 318 315 311 304 299 294 278 275 277 268 271 272 272 270 276 280 279 273 272 270 266 262 262 254 242 240 264 329 269 220